• In Uzbekistan
  • List of Countries
  • For 7 days
  • Water Temperature
  • Satellite Maps
  • Weather Map
  • Weather Widgets
  • user-avatar
    Login

    Hourly Weather La Massana

    Today, 3 December, Saturday

    Time Temperature Precipitation Wind Pressure Humidity
    00:00 -7°C° 0 mm 0 mps 604 mmHg 64%
    01:00 -7°C° 0 mm 0 mps 604 mmHg 63%
    02:00 -7°C° 0 mm 0 mps 604 mmHg 62%
    03:00 -7°C° 0 mm 0 mps 603 mmHg 61%
    04:00 -7°C° 0 mm 0 mps 603 mmHg 58%
    05:00 -7°C° 0 mm 1 mps 603 mmHg 55%
    06:00 -7°C° 0 mm 1 mps 603 mmHg 53%
    07:00 -4°C° 0 mm 1 mps 605 mmHg 47%
    08:00 -2°C° 0 mm 1 mps 606 mmHg 42%
    09:00 0°C° 0 mm 1 mps 608 mmHg 37%
    10:00 +2°C° 0 mm 1 mps 608 mmHg 36%
    11:00 +4°C° 0 mm 1 mps 609 mmHg 35%
    12:00 +4°C° 0 mm 2 mps 609 mmHg 34%
    13:00 +3°C° 0 mm 2 mps 609 mmHg 40%
    14:00 +2°C° 0 mm 2 mps 608 mmHg 47%
    15:00 +1°C° 0 mm 2 mps 607 mmHg 53%
    16:00 -2°C° 0 mm 2 mps 607 mmHg 57%
    17:00 -3°C° 0 mm 2 mps 606 mmHg 60%
    18:00 -5°C° 0 mm 2 mps 606 mmHg 64%
    19:00 -5°C° 0 mm 2 mps 606 mmHg 66%
    20:00 -5°C° 0 mm 2 mps 606 mmHg 69%
    21:00 -5°C° 0 mm 2 mps 606 mmHg 71%
    22:00 -5°C° 0 mm 2 mps 606 mmHg 75%
    23:00 -4°C° 0 mm 2 mps 606 mmHg 79%

    Tomorrow, 4 December, Sunday

    Time Temperature Precipitation Wind Pressure Humidity
    00:00 -4°C° 0 mm 2 mps 606 mmHg 82%
    01:00 -4°C° 0 mm 2 mps 606 mmHg 84%
    02:00 -3°C° 0 mm 2 mps 607 mmHg 86%
    03:00 -3°C° 0 mm 2 mps 607 mmHg 88%
    04:00 -3°C° 0 mm 2 mps 607 mmHg 88%
    05:00 -3°C° 0 mm 2 mps 607 mmHg 89%
    06:00 -3°C° 0 mm 2 mps 606 mmHg 89%
    07:00 -2°C° 0 mm 2 mps 607 mmHg 85%
    08:00 -1°C° 0 mm 2 mps 608 mmHg 81%
    09:00 +1°C° 0 mm 2 mps 609 mmHg 76%
    10:00 +2°C° 0 mm 3 mps 609 mmHg 73%
    11:00 +3°C° 0 mm 3 mps 610 mmHg 69%
    12:00 +4°C° 0 mm 3 mps 610 mmHg 65%
    13:00 +3°C° 0 mm 3 mps 610 mmHg 68%
    14:00 +3°C° 0 mm 3 mps 610 mmHg 71%
    15:00 +3°C° 0 mm 2 mps 609 mmHg 74%
    16:00 +2°C° 0 mm 2 mps 609 mmHg 78%
    17:00 +1°C° 0 mm 2 mps 609 mmHg 82%
    18:00 -1°C° 0 mm 2 mps 609 mmHg 85%
    19:00 -1°C° 0.1 mm 2 mps 609 mmHg 87%
    20:00 -1°C° 0.1 mm 2 mps 610 mmHg 88%
    21:00 -1°C° 0.1 mm 2 mps 610 mmHg 89%
    22:00 -1°C° 0.1 mm 2 mps 610 mmHg 90%
    23:00 -1°C° 0.1 mm 2 mps 610 mmHg 91%

    Day after tomorrow, 5 December, Monday

    Time Temperature Precipitation Wind Pressure Humidity
    00:00 -1°C° 0.1 mm 2 mps 610 mmHg 92%
    01:00 -1°C° 0 mm 2 mps 610 mmHg 91%
    02:00 -1°C° 0 mm 2 mps 610 mmHg 89%
    03:00 -1°C° 0 mm 2 mps 610 mmHg 88%
    04:00 -2°C° 0 mm 2 mps 610 mmHg 86%
    05:00 -2°C° 0 mm 2 mps 610 mmHg 84%
    06:00 -2°C° 0 mm 2 mps 610 mmHg 82%
    07:00 -1°C° 0 mm 2 mps 611 mmHg 79%
    08:00 +1°C° 0 mm 2 mps 612 mmHg 76%
    09:00 +2°C° 0 mm 2 mps 612 mmHg 73%
    10:00 +3°C° 0 mm 2 mps 613 mmHg 71%
    11:00 +4°C° 0 mm 2 mps 613 mmHg 69%
    12:00 +5°C° 0 mm 2 mps 614 mmHg 66%
    13:00 +5°C° 0 mm 2 mps 614 mmHg 70%
    14:00 +4°C° 0 mm 2 mps 613 mmHg 74%
    15:00 +4°C° 0 mm 2 mps 613 mmHg 78%
    16:00 +3°C° 0 mm 1 mps 613 mmHg 83%
    17:00 +2°C° 0 mm 1 mps 612 mmHg 87%
    18:00 0°C° 0 mm 1 mps 612 mmHg 92%
    19:00 0°C° 0 mm 1 mps 612 mmHg 92%
    20:00 0°C° 0 mm 1 mps 612 mmHg 92%
    21:00 -1°C° 0 mm 1 mps 612 mmHg 91%
    22:00 -1°C° 0 mm 1 mps 612 mmHg 91%
    23:00 -1°C° 0 mm 1 mps 612 mmHg 91%

    6 December, Tuesday

    Time Temperature Precipitation Wind Pressure Humidity
    00:00 -1°C° 0 mm 1 mps 612 mmHg 91%
    01:00 -1°C° 0 mm 1 mps 612 mmHg 91%
    02:00 -2°C° 0 mm 1 mps 612 mmHg 90%
    03:00 -2°C° 0 mm 1 mps 612 mmHg 89%
    04:00 -2°C° 0 mm 1 mps 612 mmHg 89%
    05:00 -2°C° 0 mm 1 mps 612 mmHg 88%
    06:00 -2°C° 0 mm 1 mps 612 mmHg 87%
    07:00 0°C° 0 mm 1 mps 613 mmHg 81%
    08:00 +2°C° 0 mm 1 mps 614 mmHg 75%
    09:00 +3°C° 0 mm 1 mps 616 mmHg 69%
    10:00 +5°C° 0 mm 1 mps 616 mmHg 65%
    11:00 +5°C° 0 mm 0 mps 616 mmHg 60%
    12:00 +6°C° 0 mm 0 mps 617 mmHg 56%
    13:00 +5°C° 0 mm 0 mps 617 mmHg 61%
    14:00 +5°C° 0 mm 0 mps 616 mmHg 67%
    15:00 +5°C° 0 mm 1 mps 616 mmHg 72%
    16:00 +3°C° 0 mm 1 mps 615 mmHg 77%
    17:00 +1°C° 0 mm 1 mps 614 mmHg 82%
    18:00 -1°C° 0 mm 1 mps 614 mmHg 87%
    19:00 -1°C° 0 mm 1 mps 614 mmHg 83%
    20:00 -3°C° 0 mm 2 mps 614 mmHg 79%
    21:00 -3°C° 0 mm 2 mps 614 mmHg 75%
    22:00 -3°C° 0 mm 2 mps 614 mmHg 74%
    23:00 -3°C° 0 mm 2 mps 614 mmHg 73%

    7 December, Wednesday

    Time Temperature Precipitation Wind Pressure Humidity
    00:00 -3°C° 0 mm 2 mps 614 mmHg 72%
    01:00 -3°C° 0 mm 2 mps 614 mmHg 73%
    02:00 -3°C° 0 mm 2 mps 613 mmHg 74%
    03:00 -3°C° 0 mm 2 mps 613 mmHg 75%
    04:00 -3°C° 0 mm 2 mps 613 mmHg 76%
    05:00 -3°C° 0 mm 2 mps 613 mmHg 77%
    06:00 -3°C° 0 mm 2 mps 613 mmHg 78%
    07:00 -2°C° 0 mm 2 mps 614 mmHg 73%
    08:00 +1°C° 0 mm 2 mps 615 mmHg 67%
    09:00 +2°C° 0 mm 2 mps 616 mmHg 62%
    10:00 +4°C° 0 mm 2 mps 617 mmHg 58%
    11:00 +6°C° 0 mm 1 mps 617 mmHg 53%
    12:00 +8°C° 0 mm 1 mps 618 mmHg 49%
    13:00 +7°C° 0 mm 1 mps 617 mmHg 54%
    14:00 +6°C° 0 mm 1 mps 617 mmHg 60%
    15:00 +5°C° 0 mm 1 mps 616 mmHg 65%
    16:00 +3°C° 0 mm 1 mps 616 mmHg 70%
    17:00 +1°C° 0 mm 1 mps 615 mmHg 75%
    18:00 -2°C° 0 mm 2 mps 614 mmHg 80%
    19:00 -3°C° 0 mm 2 mps 615 mmHg 79%
    20:00 -3°C° 0 mm 2 mps 615 mmHg 79%
    21:00 -3°C° 0 mm 2 mps 615 mmHg 78%
    22:00 -1°C° 0 mm 1 mps 615 mmHg 80%
    23:00 -1°C° 0 mm 1 mps 615 mmHg 81%

    8 December, Thursday

    Time Temperature Precipitation Wind Pressure Humidity
    00:00 -2°C° 0 mm 1 mps 615 mmHg 82%
    01:00 -2°C° 0 mm 1 mps 615 mmHg 83%
    02:00 -2°C° 0 mm 1 mps 614 mmHg 84%
    03:00 -3°C° 0 mm 1 mps 614 mmHg 85%
    04:00 -3°C° 0 mm 1 mps 614 mmHg 85%
    05:00 -3°C° 0 mm 1 mps 614 mmHg 85%
    06:00 -3°C° 0 mm 1 mps 614 mmHg 86%
    07:00 -1°C° 0 mm 1 mps 615 mmHg 80%
    08:00 +1°C° 0 mm 1 mps 616 mmHg 75%
    09:00 +2°C° 0 mm 1 mps 618 mmHg 69%
    10:00 +3°C° 0 mm 1 mps 618 mmHg 64%
    11:00 +4°C° 0 mm 2 mps 618 mmHg 58%
    12:00 +5°C° 0 mm 2 mps 619 mmHg 53%
    13:00 +5°C° 0 mm 2 mps 618 mmHg 56%
    14:00 +4°C° 0 mm 2 mps 618 mmHg 59%
    15:00 +4°C° 0 mm 1 mps 618 mmHg 62%
    16:00 +2°C° 0 mm 1 mps 617 mmHg 69%
    17:00 0°C° 0 mm 1 mps 616 mmHg 76%
    18:00 -2°C° 0 mm 1 mps 615 mmHg 83%
    19:00 -2°C° 0 mm 1 mps 615 mmHg 82%
    20:00 -2°C° 0 mm 1 mps 615 mmHg 81%
    21:00 -2°C° 0 mm 1 mps 616 mmHg 80%
    22:00 -2°C° 0 mm 1 mps 615 mmHg 78%
    23:00 -2°C° 0 mm 1 mps 615 mmHg 76%
    Show more